Regional Weather Roundup
Issued by NWS

Home | Current Version | Previous Version | Graphics & Text | Print | Product List | Glossary On
Versions: 1 2 3 4 5 6 7 8 9 10 11 12 13 14 15 16 17 18 19 20 21 22 23 24 25 26 27 28 29 30 31 32 33 34 35 36 37 38 39 40 41 42 43 44 45 46 47 48 49 50
000
ASUS43 KMKX 291011
RWRWI

WISCONSIN REGIONAL WEATHER ROUNDUP
NATIONAL WEATHER SERVICE MILWAUKEE/SULLIVAN WI
400 AM CST MON DEC 29 2014

NOTE: "FAIR" INDICATES FEW OR NO CLOUDS BELOW 12,000 FEET WITH NO
SIGNIFICANT WEATHER AND/OR OBSTRUCTIONS TO VISIBILITY.

WIZ001-002-006>008-014>016-023>028-291100-
NORTHWEST WISCONSIN

CITY           SKY/WX    TMP DP  RH WIND       PRES   REMARKS
SUPERIOR ARPT  CLEAR     -1  -8  73 NW5       30.48R WCI -11
ASHLAND        CLOUDY     1  -3  83 W5        30.42R WCI  -9
HAYWARD        PTCLDY   -12 -16  82 CALM      30.39R
SIREN          CLEAR     -4  -8  83 N3        30.43S
CUMBERLAND     PTCLDY     1  -6  71 N7        30.37S WCI -11
RICE LAKE      PTCLDY     1  -5  75 CALM      30.41R
CHETEK         PTCLDY    -3  -7  85 CALM      30.39S
LADYSMITH      PTCLDY    -4  -8  83 CALM      30.39R
EAU CLAIRE     MOCLDY     3  -4  72 N3        30.40R
MENOMONIE      PTCLDY     4  -3  69 NW6       30.41R WCI  -6
NEW RICHMOND   PTCLDY     1  -5  75 N7        30.42R WCI -11
OSCEOLA        MOCLDY     3  -3  75 N7        30.46S WCI  -9
$$

WIZ003>005-009-010-017-018-291100-
NORTH CENTRAL WISCONSIN

CITY           SKY/WX    TMP DP  RH WIND       PRES   REMARKS
MANITOWISH WTR FLURRIES -10 -15  80 W3        30.29R
ARBOR VITAE    MOCLDY    -4  -8  82 CALM      30.29R
WOODRUFF       MOCLDY    -4  -8  82 CALM      30.29R
RHINELANDER    MOCLDY    -6  -9  86 W5        30.29R WCI -17
EAGLE RIVER    FLURRIES  -1  -6  80 CALM      30.27R
LAND O LAKES   FLURRIES   5   2  86 W3        30.26S
PHILLIPS       CLEAR    -15 -20  81 CALM      30.32S
TOMAHAWK       MOCLDY   -14 -19  78 CALM      30.32R
MEDFORD        PTCLDY   N/A N/A N/A N6        30.31F
MERRILL        MOCLDY    -2  -4  87 NW3       30.32R
$$

WIZ029-030-035-036-043>047-291100-
CENTRAL WISCONSIN

CITY           SKY/WX    TMP DP  RH WIND       PRES   REMARKS
WAUSAU         PTCLDY     2  -2  83 NW6       30.32R WCI  -9
MOSINEE        PTCLDY     5   3  92 N5        30.33F WCI  -4
MARSHFIELD     MOCLDY     6   0  76 N8        30.34R WCI  -7
STEVENS POINT  PTCLDY     6   1  82 NW5       30.34R WCI  -3
WAUPACA        MOCLDY    14   7  73 N5        30.36R WCI   6
WAUTOMA        MOCLDY    14   7  74 N8        30.36R WCI   3
WISC RAPIDS    MOCLDY    10   4  76 N6        30.36R WCI   0
CAMP DOUGLAS   CLOUDY    13  12  93 N7        30.35R WCI   3
$$

WIZ011>013-019>022-031-037>040-048>050-291100-
NORTHEAST WISCONSIN

CITY           SKY/WX    TMP DP  RH WIND       PRES   REMARKS
ANTIGO         CLOUDY     0  -3  87 NW8       30.29R WCI -15
SHAWANO        PTCLDY    11   6  78 CALM      30.36R
OCONTO         MOCLDY    12   7  78 NW5       30.35R WCI   4
STURGEON BAY   PTCLDY    16   7  67 NW12      30.33S WCI   3
GREEN BAY      MOCLDY    15   7  70 N7        30.35R WCI   5
MANITOWOC      MOCLDY    17  10  74 N8        30.33S WCI   7
APPLETON       MOCLDY    16   7  67 N8        30.32F WCI   5
CLINTONVILLE   MOCLDY    12   5  73 NW5       30.35R WCI   4
OSHKOSH        MOCLDY    16   6  65 N8        30.33R WCI   5
$$

WIZ032>034-041-042-053>061-291100-
SOUTHWEST WISCONSIN

CITY           SKY/WX    TMP DP  RH WIND       PRES   REMARKS
LA CROSSE      CLOUDY    15   9  76 N9        30.39R WCI   3
SPARTA         MOCLDY    13   8  81 N5        30.38R WCI   5
VIROQUA        CLOUDY    17  14  89 N9        30.31R WCI   5
BOSCOBEL       CLOUDY    22  13  68 N6        30.34S WCI  14
PRAIRIE DU CHI CLOUDY    22  13  65 NE6       30.33S WCI  15
PLATTEVILLE    MOCLDY    23  18  80 CALM      30.30S
$$

WIZ056-057-062-063-064-067-068-291100-
SOUTH CENTRAL WISCONSIN

CITY           SKY/WX    TMP DP  RH WIND       PRES   REMARKS
REEDSBURG      CLOUDY    17  12  80 N5        30.33S WCI  10
BARABOO/DELLS  CLOUDY    17  12  78 N3        30.33R
LONE ROCK      CLOUDY    24  13  62 N8        30.34R WCI  15
MINERAL POINT  MOCLDY    23  18  80 N6        30.29R WCI  16
MADISON        CLOUDY    20  13  74 N8        30.32R WCI  10
MIDDLETON      MOCLDY    22  14  71 NE8       30.32R WCI  12
WATERTOWN      CLOUDY    19  17  88 N5        30.30S WCI  13
MONROE         PTCLDY    23  19  86 N8        30.28R WCI  14
JANESVILLE     PTCLDY    27  19  74 N5        30.30R WCI  21
$$

WIZ051-052-058>065-066-070>072-291100-
SOUTHEAST WISCONSIN

CITY           SKY/WX    TMP DP  RH WIND       PRES   REMARKS
MILWAUKEE      CLOUDY    24  14  65 N10       30.30R WCI  14
WAUKESHA       CLOUDY    21  16  79 N5        30.30S WCI  15
MILWAUKEE/TIMM CLOUDY    21  14  73 N7        30.31S WCI  13
RACINE         CLOUDY    26  19  74 N13       30.31R WCI  15
BURLINGTON     CLOUDY    22  17  81 N6        30.29R WCI  15
KENOSHA        CLOUDY    25  20  81 N6        30.29R WCI  18
FOND DU LAC    MOCLDY    17   8  67 N10       30.32F WCI   5
SHEBOYGAN      MOCLDY    17   9  70 N7        30.32S WCI   8
WEST BEND      MOCLDY    19  10  68 N6        30.30R WCI  11
JUNEAU         MOCLDY    18  14  82 N9        30.32R WCI   7
$$

LSZ147-162-291100-
LAKE SUPERIOR

STATION/POSITION TIME  TEMP    WIND        PRES    WAVE
                       AIR SEA DIR/SP/G            HT/PER
                 (UTC) (F)     (DEG/KT/KT) (MB)    (FT/S)
DEVILS ISLAND    1000    7     330/ 13/ 17 1031.7R
PORT WING        0900    7     320/ 12/ 17 1030.8
SAXON HARBOR     0900    8     240/  5/ 12 1029.1R
$$

LMZ867-665-643>646-291100-
LAKE MICHIGAN

STATION/POSITION TIME  TEMP    WIND        PRES    WAVE
                       AIR SEA DIR/SP/G            HT/PER
                 (UTC) (F)     (DEG/KT/KT) (MB)    (FT/S)
CHAMBERS ISLAND  0900   15     300/  7/ 11 1026.4F
NORTHPORT PIER   0911   18     320/ 14/ 20 1026.1F
SISTER BAY       0828          330/ 18/ 22   N/A
ALGOMA LAKESHORE 0945          330/ 10/ 12   N/A
KEWAUNEE LAKESHO 0900   16     340/  3/  7 1025.9F
SHEBOYGAN LAKESH 1000   18 36  310/  9/ 11 1028.3R
PORT WASHINGTON  0940   21     360/  5/ 10 1027.4S
MILWAUKEE LAKESH 0900   25     330/  8/ 11   N/A
KENOSHA   LAKESH 1000   27     350/ 13/ 17 1025.4S
$$

TC  - TEMPERATURE IN CELSIUS
VSB - VISIBILITY IN STATUTE MILES
WCI - WIND CHILL INDEX
HX  - HEAT INDEX



USA.gov is the U.S. government's official web portal to all federal, state and local government web resources and services.